This is the latest recevied weather packets stored in our database for station/object IK2ILW-4. If no packets are shown the sender has not sent any weather packets the latest 10 day(s).
| Time | Temp. | Humidity | Pressure | Rain* | Wind** | Luminosity | Snow |
|---|---|---|---|---|---|---|---|
| 1787771551 | 18.89° C | 81% | 1023.4 hPa | 0.51 mm | - | 0 W/m² | - |
| 1787771267 | 18.89° C | 81% | 1023.4 hPa | 0.51 mm | - | 0 W/m² | - |
| 1787770971 | 18.89° C | 81% | 1023.4 hPa | 0.51 mm | - | 0 W/m² | - |
| 1787770672 | 18.89° C | 80% | 1023.4 hPa | 0.51 mm | - | 0 W/m² | - |
| 1787770368 | 18.89° C | 80% | 1023.4 hPa | 0.51 mm | - | 0 W/m² | - |
| 1787770073 | 18.89° C | 80% | 1023.4 hPa | 0.51 mm | - | 0 W/m² | - |
| 1787769769 | 18.89° C | 80% | 1023.5 hPa | 0.51 mm | - | 0 W/m² | - |
| 1787769465 | 18.89° C | 80% | 1023.5 hPa | 0.51 mm | - | 0 W/m² | - |
| 1787769173 | 18.89° C | 80% | 1023.5 hPa | 0.51 mm | - | 0 W/m² | - |
| 1787768869 | 18.89° C | 80% | 1023.5 hPa | 0.51 mm | - | 0 W/m² | - |
| 1787768563 | 18.89° C | 79% | 1023.5 hPa | 0.51 mm | - | 0 W/m² | - |
| 1787768271 | 18.89° C | 80% | 1023.5 hPa | 0.51 mm | - | 0 W/m² | - |
| 1787767965 | 18.89° C | 80% | 1023.5 hPa | 0.51 mm | - | 5 W/m² | - |
| 1787767662 | 18.89° C | 83% | 1023.5 hPa | 0.51 mm | - | 5 W/m² | - |
| 1787767370 | 18.89° C | 82% | 1023.5 hPa | 0.51 mm | - | 5 W/m² | - |
| 1787767071 | 18.89° C | 82% | 1023.1 hPa | 0.51 mm | - | 9 W/m² | - |
| 1787766762 | 18.89° C | 83% | 1023.1 hPa | 0.51 mm | - | 11 W/m² | - |
| 1787766469 | 18.89° C | 83% | 1023.1 hPa | 0.51 mm | - | 12 W/m² | - |
| 1787766165 | 19.44° C | 83% | 1022.9 hPa | 0.51 mm | - | 16 W/m² | - |
| 1787765859 | 19.44° C | 83% | 1022.9 hPa | 0.51 mm | - | 19 W/m² | - |
| 1787765569 | 18.89° C | 84% | 1022.9 hPa | 0.51 mm | - | 25 W/m² | - |
| 1787765267 | 18.89° C | 84% | 1023.2 hPa | 0.51 mm | - | 25 W/m² | - |
| 1787764953 | 18.89° C | 84% | 1023.2 hPa | 0.51 mm | - | 26 W/m² | - |
| 1787764665 | 19.44° C | 83% | 1023.2 hPa | 0.51 mm | - | 30 W/m² | - |
| 1787764360 | 19.44° C | 83% | 1023.1 hPa | 0.51 mm | - | 40 W/m² | - |
* Rain since midnight (hover to see other rain measurements)
** Current wind speed in m/s (hover to see current wind gust speed)